Skip Page Navigation
NASA JPL Caltech
NASA Logo - Jet Propulsion Laboratory + View the NASA Portal
+ Center for Near-Earth Object Studies
JPL Home Earth Solar System Stars & Galaxies Technology
JPL Solar System Dynamics
BODIES ORBITS EPHEMERIDES TOOLS PHYSICAL DATA DISCOVERY FAQ SITE MAP
IMPORTANT: The SSD Announcement email list is now available. Major changes are coming in the near future, including possible hostname and/or URL changes. To be notified of such changes, subscribe to this email list.

Please visit this page for more details.


JPL Small-Body Database Browser
Search: [ help ]  
7695 Premysl (1984 WA1)
Classification: Main-belt Asteroid          SPK-ID: 2007695
Ephemeris | Orbit Diagram | Orbital Elements | Mission Design | Physical Parameters | Discovery Circumstances | Close-Approach Data ]

[ show orbit diagram ]
Orbital Elements at Epoch 2458600.5 (2019-Apr-27.0) TDB
Reference: JPL 24 (heliocentric ecliptic J2000)
 Element Value Uncertainty (1-sigma)   Units 
e .2602504205554522 5.3385e-08  
a 2.298566173213796 8.6007e-09 au
q 1.700363359960369 1.2263e-07 au
i 26.01708274122587 5.9535e-06 deg
node 54.59611151266694 8.4849e-06 deg
peri 323.3330859891765 1.367e-05 deg
M 336.0428687218057 1.3635e-05 deg
tp 2458685.206405998986
(2019-Jul-20.70640600)
4.8427e-05 TDB
period 1272.869685670199
3.48
7.1442e-06
1.956e-08
d
yr
n .2828254958483443 1.5874e-09 deg/d
Q 2.896768986467223 1.0839e-08 au
  Orbit Determination Parameters
   # obs. used (total)      1189  
   data-arc span      13354 days (36.56 yr)  
   first obs. used      1983-05-06  
   last obs. used      2019-11-27  
   planetary ephem.      DE431  
   SB-pert. ephem.      SB431-N16  
   condition code      0  
   norm. resid. RMS      .50825  
   source      ORB  
   producer      Otto Matic  
   solution date      2019-Dec-03 21:47:20  

Additional Information
 Earth MOID = .747731 au 
 Jupiter MOID = 2.62572 au 
 T_jup = 3.417 
[ show covariance matrix ]

Ephemeris | Orbit Diagram | Orbital Elements | Mission Design | Physical Parameters | Discovery Circumstances | Close-Approach Data ]

Physical Parameter Table
Parameter Symbol Value Units Sigma Reference Notes
absolute magnitude H 14.1   n/a MPO431587  
diameter diameter 3.393 km 0.216 urn:nasa:pds:neowise_diameters_albedos::2.0[mainbelt] (http://adsabs.harvard.edu/abs/2011ApJ...741...68M)  
rotation period rot_per 11.734 h n/a LCDB (Rev. 2019-January); Warner et al., 2009 Result based on less than full coverage, so that the period may be wrong by 30 percent or so.
Published Reference List:
[Pravec, P.; Wolf, M.; Sarounova, L. (2012) http://www.asu.cas.cz/~ppravec/neo.htm]
geometric albedo albedo 0.385   0.118 urn:nasa:pds:neowise_diameters_albedos::2.0[mainbelt] (http://adsabs.harvard.edu/abs/2011ApJ...741...68M)  

7695 Přemysl           Discovered 1984 Nov. 27 by A. Mrkos at Klet.
Named for a mythical hero Přemysl, called Ploughman. He married princess Libuše, and they became the mythical founders of the royal dynasty of the Přemyslids, ruling over Bohemia until 1306. Bohemian kings Přemysl Otakar I (?-1230) and Přemysl Otakar II (?-1278) are considered the most reputable members of this dynasty. Name suggested by J. Ticha, M. Tichy and Z. Moravec.
NOTE: some special characters may not display properly (any characters within {} are an attempt to place the proper accent above a character)
Reference: 19980610/MPCPages.arcLast Updated: 2009-11-17

[ hide close-approach data ]
Close-Approach Data   ...sorted by Date/Time (TDB)
Date/Time (TDB) Time Uncertainty
(days_HH:MM)
Body Nominal Distance (au) Minimum Distance (au) Maximum Distance (au) V-relative (km/s) V-infinity (km/s) JD (TDB) Time Uncertainty (minutes) Semi-major axis (km) Semi-minor axis (km) range-LOV angle (deg) N-sigma BP Orbit Ref. Reference Modified
2167-Sep-17 21:59 < 00:01 Hebe 0.024814651431992 0.0248118204176778 0.0248174860797294 7.50262882517232 7.50262879178082 2512800.416155519 0.785030001975829 507.119373790689 33.1946319654604 74.2590571191323 107634.328602637 T 24 CATAB v2.0f-lin.ifort 2019-Dec-03 21:47:27 2019-Dec-03 21:47

Alternate Designations
 1984 WA1 = 1991 VF 
Ephemeris | Orbit Diagram | Orbital Elements | Mission Design | Physical Parameters | Discovery Circumstances | Close-Approach Data ]
ABOUT SSD CREDITS/AWARDS PRIVACY/COPYRIGHT GLOSSARY LINKS
FirstGov 2019-Dec-13 03:24 UT
(server date/time)  
NASA Home Page
Site Manager:   Ryan S. Park
Webmaster  Alan B. Chamberlin